Kahului, HI

12:11 AM HST on December 16, 2017 (GMT -1000)
Kahului

Weather History for PHOG - October, 2011

Change the Weather History Date:

Tuesday, October 11, 2011

  Actual Average Record
Temperature  
Mean Temperature 76 °F 78 °F  
Max Temperature 85 °F 87 °F 93 °F (1951)
Min Temperature 67 °F 70 °F 59 °F (1983)
Cooling Degree Days 11 13  
Month to date cooling degree days 144 152  
Year to date cooling degree days 3144 3120  
Growing Degree Days 27 (Base 50)    
Moisture  
Dew Point 62 °F    
Average Humidity 61    
Maximum Humidity 73    
Minimum Humidity 48    
Precipitation  
Precipitation 0.00 in 0.03 in 0.11 in (1992)
Month to date precipitation 0.01 0.32  
Year to date precipitation 10.44 11.40  
Snow  
Snow 0.00 in - - ()
Month to date snowfall 0.0  
Since 1 July snowfall 0.0  
Since 1 September snowfall 0.0  
Snow Depth 0.00 in    
Sea Level Pressure  
Sea Level Pressure 30.00 in    
Wind  
Wind Speed 12 mph (NE)    
Max Wind Speed 23 mph    
Max Gust Speed 29 mph    
Visibility 10 miles    
Events      
T = Trace of Precipitation, MM = Missing Value Source: NWS Daily Summary

Daily Weather History Graph

Daily Weather History Graph

Search for Another Location

Airport or City:

Trip Planner

Search our weather history database for the weather conditions in past years. The results will help you decide how hot, cold, wet, or windy it might be!

Date:

Astronomy

Oct. 11, 2011 Rise Set
Actual Time 6:19 AM HST 6:04 PM HST
Civil Twilight 5:57 AM HST 6:27 PM HST
Nautical Twilight 5:31 AM HST 6:52 PM HST
Astronomical Twilight 5:06 AM HST 7:18 PM HST
Moon 5:51 PM HST (10/11) 6:02 AM HST (10/11)
Length of Visible Light 12h 29m
Length of Day
11h 45m
Full, 100% of the Moon is Illuminated
Oct 11
Full
Oct 11
Full
Oct 19
Last Quarter
Oct 26
New
Nov 2
First Quarter

Hourly Weather History & Observations

Time (HST) Temp. Heat Index Dew Point Humidity Pressure Visibility Wind Dir Wind Speed Gust Speed Precip Events Conditions
12:54 AM 73.0 °F - 62.1 °F 68% 30.03 in 10.0 mi ENE 6.9 mph - N/A   Partly Cloudy
1:54 AM 73.0 °F - 61.0 °F 66% 30.02 in 10.0 mi NE 10.4 mph - N/A   Clear
2:54 AM 73.0 °F - 62.1 °F 68% 30.01 in 10.0 mi NE 10.4 mph - N/A   Clear
3:54 AM 71.1 °F - 60.1 °F 68% 30.00 in 10.0 mi NNE 9.2 mph - N/A   Clear
4:54 AM 73.0 °F - 60.1 °F 64% 29.99 in 10.0 mi NE 12.7 mph - N/A   Clear
5:54 AM 72.0 °F - 61.0 °F 68% 30.01 in 10.0 mi NNE 8.1 mph - N/A   Clear
6:54 AM 70.0 °F - 60.1 °F 71% 30.03 in 10.0 mi East 3.5 mph - N/A   Clear
7:54 AM 77.0 °F - 60.1 °F 56% 30.04 in 10.0 mi Calm Calm - N/A   Clear
8:54 AM 80.1 °F 81.2 °F 62.1 °F 54% 30.05 in 10.0 mi ENE 10.4 mph - N/A   Partly Cloudy
9:54 AM 81.0 °F 82.5 °F 64.0 °F 56% 30.04 in 10.0 mi NE 16.1 mph 24.2 mph N/A   Scattered Clouds
10:54 AM 84.0 °F 84.9 °F 63.0 °F 49% 30.03 in 10.0 mi NE 20.7 mph - N/A   Partly Cloudy
11:54 AM 82.9 °F 84.0 °F 63.0 °F 51% 29.99 in 10.0 mi ENE 18.4 mph 26.5 mph N/A   Scattered Clouds
12:54 PM 82.0 °F 83.0 °F 62.1 °F 51% 29.96 in 10.0 mi NE 19.6 mph 25.3 mph N/A   Scattered Clouds
1:54 PM 84.0 °F 84.9 °F 63.0 °F 49% 29.95 in 10.0 mi ENE 16.1 mph 25.3 mph N/A   Scattered Clouds
2:54 PM 82.9 °F 84.4 °F 64.0 °F 53% 29.94 in 10.0 mi NE 21.9 mph 28.8 mph N/A   Scattered Clouds
3:54 PM 82.9 °F 84.4 °F 64.0 °F 53% 29.94 in 10.0 mi ENE 17.3 mph 26.5 mph N/A   Partly Cloudy
4:54 PM 80.1 °F 81.7 °F 64.0 °F 58% 29.94 in 10.0 mi NE 16.1 mph 24.2 mph N/A   Scattered Clouds
5:54 PM 77.0 °F - 62.1 °F 60% 29.95 in 10.0 mi NE 16.1 mph 24.2 mph N/A   Scattered Clouds
6:54 PM 75.9 °F - 60.1 °F 58% 29.97 in 10.0 mi ENE 10.4 mph - N/A   Scattered Clouds
7:54 PM 75.9 °F - 62.1 °F 62% 30.00 in 10.0 mi NE 10.4 mph - N/A   Mostly Cloudy
8:54 PM 75.0 °F - 62.1 °F 64% 30.02 in 10.0 mi ENE 9.2 mph - N/A   Scattered Clouds
9:54 PM 73.9 °F - 64.0 °F 71% 30.03 in 10.0 mi ENE 8.1 mph - N/A   Clear
10:54 PM 73.9 °F - 64.0 °F 71% 30.03 in 10.0 mi NE 11.5 mph - N/A   Clear
11:54 PM 73.0 °F - 64.0 °F 73% 30.03 in 10.0 mi East 4.6 mph - N/A   Scattered Clouds